• In Portugal
  • List of Countries
  • For 7 days
  • Water Temperature
  • Satellite Maps
  • Weather Map
  • Weather Widgets
  • user-avatar
    Login

    Hourly Weather Aleksandrovka

    Today, 15 October, Monday

    Time Temperature Precipitation Wind Pressure Humidity
    00:00 +13°C° 0 mm 2 mps 757 mmHg 77%
    01:00 +12°C° 0 mm 2 mps 757 mmHg 79%
    02:00 +12°C° 0 mm 2 mps 757 mmHg 82%
    03:00 +12°C° 0 mm 2 mps 757 mmHg 84%
    04:00 +12°C° 0 mm 2 mps 757 mmHg 85%
    05:00 +12°C° 0 mm 2 mps 757 mmHg 87%
    06:00 +13°C° 0 mm 2 mps 757 mmHg 81%
    07:00 +14°C° 0 mm 2 mps 757 mmHg 76%
    08:00 +15°C° 0 mm 2 mps 758 mmHg 69%
    09:00 +17°C° 0 mm 2 mps 758 mmHg 62%
    10:00 +19°C° 0 mm 2 mps 758 mmHg 54%
    11:00 +21°C° 0 mm 3 mps 758 mmHg 47%
    12:00 +22°C° 0 mm 3 mps 758 mmHg 44%
    13:00 +22°C° 0 mm 3 mps 757 mmHg 41%
    14:00 +25°C° 0 mm 3 mps 757 mmHg 38%
    15:00 +22°C° 0 mm 3 mps 757 mmHg 43%
    16:00 +21°C° 0 mm 2 mps 757 mmHg 47%
    17:00 +19°C° 0 mm 2 mps 757 mmHg 52%
    18:00 +19°C° 0 mm 2 mps 757 mmHg 55%
    19:00 +18°C° 0 mm 2 mps 757 mmHg 58%
    20:00 +17°C° 0 mm 2 mps 757 mmHg 61%
    21:00 +17°C° 0 mm 2 mps 757 mmHg 63%
    22:00 +16°C° 0 mm 2 mps 757 mmHg 65%
    23:00 +16°C° 0 mm 2 mps 757 mmHg 67%

    Tomorrow, 16 October, Tuesday

    Time Temperature Precipitation Wind Pressure Humidity
    00:00 +15°C° 0 mm 2 mps 757 mmHg 69%
    01:00 +15°C° 0 mm 2 mps 757 mmHg 71%
    02:00 +15°C° 0 mm 1 mps 758 mmHg 73%
    03:00 +14°C° 0 mm 2 mps 758 mmHg 74%
    04:00 +14°C° 0 mm 2 mps 757 mmHg 76%
    05:00 +14°C° 0 mm 2 mps 757 mmHg 77%
    06:00 +15°C° 0 mm 2 mps 758 mmHg 73%
    07:00 +16°C° 0 mm 2 mps 758 mmHg 69%
    08:00 +17°C° 0 mm 2 mps 758 mmHg 64%
    09:00 +19°C° 0 mm 2 mps 758 mmHg 57%
    10:00 +21°C° 0 mm 2 mps 758 mmHg 50%
    11:00 +24°C° 0 mm 3 mps 758 mmHg 43%
    12:00 +24°C° 0 mm 3 mps 758 mmHg 41%
    13:00 +25°C° 0 mm 3 mps 757 mmHg 38%
    14:00 +26°C° 0 mm 3 mps 757 mmHg 35%
    15:00 +24°C° 0 mm 2 mps 757 mmHg 39%
    16:00 +21°C° 0 mm 2 mps 757 mmHg 43%
    17:00 +20°C° 0 mm 2 mps 757 mmHg 46%
    18:00 +19°C° 0 mm 2 mps 757 mmHg 49%
    19:00 +18°C° 0 mm 2 mps 757 mmHg 51%
    20:00 +17°C° 0 mm 2 mps 757 mmHg 53%
    21:00 +17°C° 0 mm 2 mps 757 mmHg 54%
    22:00 +16°C° 0 mm 2 mps 757 mmHg 56%
    23:00 +16°C° 0 mm 1 mps 757 mmHg 57%

    Day after tomorrow, 17 October, Wednesday

    Time Temperature Precipitation Wind Pressure Humidity
    00:00 +16°C° 0 mm 1 mps 757 mmHg 58%
    01:00 +15°C° 0 mm 1 mps 757 mmHg 59%
    02:00 +15°C° 0 mm 1 mps 757 mmHg 60%
    03:00 +14°C° 0 mm 1 mps 757 mmHg 61%
    04:00 +14°C° 0 mm 1 mps 756 mmHg 62%
    05:00 +14°C° 0 mm 1 mps 756 mmHg 64%
    06:00 +15°C° 0 mm 2 mps 756 mmHg 60%
    07:00 +16°C° 0 mm 2 mps 756 mmHg 57%
    08:00 +17°C° 0 mm 2 mps 757 mmHg 54%
    09:00 +19°C° 0 mm 2 mps 757 mmHg 48%
    10:00 +21°C° 0 mm 2 mps 756 mmHg 43%
    11:00 +22°C° 0 mm 3 mps 756 mmHg 38%
    12:00 +24°C° 0 mm 3 mps 756 mmHg 37%
    13:00 +24°C° 0 mm 3 mps 756 mmHg 35%
    14:00 +25°C° 0 mm 3 mps 756 mmHg 33%
    15:00 +22°C° 0 mm 3 mps 755 mmHg 37%
    16:00 +21°C° 0 mm 3 mps 755 mmHg 41%
    17:00 +19°C° 0 mm 2 mps 755 mmHg 45%
    18:00 +19°C° 0 mm 2 mps 755 mmHg 47%
    19:00 +18°C° 0 mm 2 mps 755 mmHg 49%
    20:00 +17°C° 0 mm 2 mps 755 mmHg 51%
    21:00 +16°C° 0 mm 2 mps 755 mmHg 53%
    22:00 +16°C° 0 mm 2 mps 755 mmHg 54%
    23:00 +15°C° 0 mm 2 mps 755 mmHg 55%

    18 October, Thursday

    Time Temperature Precipitation Wind Pressure Humidity
    00:00 +15°C° 0 mm 2 mps 755 mmHg 56%
    01:00 +15°C° 0 mm 2 mps 755 mmHg 57%
    02:00 +14°C° 0 mm 2 mps 755 mmHg 57%
    03:00 +14°C° 0 mm 2 mps 755 mmHg 58%
    04:00 +14°C° 0 mm 2 mps 755 mmHg 59%
    05:00 +13°C° 0 mm 2 mps 755 mmHg 60%
    06:00 +13°C° 0 mm 3 mps 755 mmHg 56%
    07:00 +14°C° 0 mm 3 mps 755 mmHg 53%
    08:00 +16°C° 0 mm 3 mps 755 mmHg 50%
    09:00 +18°C° 0 mm 3 mps 755 mmHg 44%
    10:00 +20°C° 0 mm 4 mps 755 mmHg 39%
    11:00 +22°C° 0 mm 4 mps 755 mmHg 33%
    12:00 +22°C° 0 mm 4 mps 754 mmHg 31%
    13:00 +23°C° 0 mm 4 mps 754 mmHg 30%
    14:00 +25°C° 0 mm 4 mps 754 mmHg 28%
    15:00 +22°C° 0 mm 4 mps 754 mmHg 31%
    16:00 +20°C° 0 mm 3 mps 753 mmHg 34%
    17:00 +19°C° 0 mm 3 mps 753 mmHg 37%
    18:00 +18°C° 0 mm 3 mps 753 mmHg 38%
    19:00 +17°C° 0 mm 3 mps 753 mmHg 40%
    20:00 +16°C° 0 mm 3 mps 753 mmHg 41%
    21:00 +16°C° 0 mm 3 mps 753 mmHg 43%
    22:00 +14°C° 0 mm 3 mps 753 mmHg 44%
    23:00 +14°C° 0 mm 3 mps 753 mmHg 45%

    19 October, Friday

    Time Temperature Precipitation Wind Pressure Humidity
    00:00 +13°C° 0 mm 3 mps 753 mmHg 47%
    01:00 +13°C° 0 mm 3 mps 753 mmHg 48%
    02:00 +13°C° 0 mm 2 mps 753 mmHg 50%
    03:00 +13°C° 0 mm 2 mps 753 mmHg 51%
    04:00 +12°C° 0 mm 3 mps 753 mmHg 53%
    05:00 +11°C° 0 mm 3 mps 753 mmHg 54%
    06:00 +12°C° 0 mm 3 mps 753 mmHg 53%
    07:00 +13°C° 0 mm 3 mps 753 mmHg 51%
    08:00 +14°C° 0 mm 4 mps 753 mmHg 49%
    09:00 +17°C° 0 mm 4 mps 752 mmHg 45%
    10:00 +19°C° 0 mm 4 mps 752 mmHg 41%
    11:00 +21°C° 0 mm 4 mps 752 mmHg 37%
    12:00 +22°C° 0 mm 4 mps 752 mmHg 35%
    13:00 +22°C° 0 mm 4 mps 751 mmHg 34%
    14:00 +23°C° 0 mm 4 mps 751 mmHg 32%
    15:00 +21°C° 0 mm 4 mps 751 mmHg 36%
    16:00 +19°C° 0 mm 3 mps 750 mmHg 40%
    17:00 +18°C° 0 mm 3 mps 750 mmHg 44%
    18:00 +17°C° 0 mm 3 mps 750 mmHg 47%
    19:00 +16°C° 0 mm 3 mps 750 mmHg 50%
    20:00 +16°C° 0 mm 3 mps 750 mmHg 52%
    21:00 +14°C° 0 mm 3 mps 750 mmHg 54%
    22:00 +14°C° 0 mm 3 mps 750 mmHg 56%
    23:00 +13°C° 0 mm 3 mps 750 mmHg 58%

    20 October, Saturday

    Time Temperature Precipitation Wind Pressure Humidity
    00:00 +14°C° 0 mm 2 mps 749 mmHg 61%
    01:00 +14°C° 0 mm 2 mps 749 mmHg 63%
    02:00 +13°C° 0 mm 2 mps 749 mmHg 66%
    03:00 +13°C° 0 mm 2 mps 749 mmHg 68%
    04:00 +13°C° 0 mm 2 mps 749 mmHg 70%
    05:00 +12°C° 0 mm 2 mps 749 mmHg 73%
    06:00 +12°C° 0 mm 3 mps 749 mmHg 70%
    07:00 +13°C° 0 mm 3 mps 749 mmHg 68%
    08:00 +13°C° 0 mm 3 mps 749 mmHg 66%
    09:00 +16°C° 0 mm 3 mps 749 mmHg 62%
    10:00 +17°C° 0 mm 3 mps 749 mmHg 59%
    11:00 +19°C° 0 mm 3 mps 748 mmHg 55%
    12:00 +19°C° 0 mm 2 mps 748 mmHg 54%
    13:00 +20°C° 0 mm 2 mps 748 mmHg 52%
    14:00 +21°C° 0 mm 2 mps 748 mmHg 51%
    15:00 +20°C° 0 mm 2 mps 748 mmHg 55%
    16:00 +18°C° 0 mm 2 mps 748 mmHg 60%
    17:00 +17°C° 0 mm 2 mps 748 mmHg 64%
    18:00 +17°C° 0 mm 2 mps 748 mmHg 69%
    19:00 +16°C° 0 mm 2 mps 748 mmHg 73%
    20:00 +15°C° 0 mm 2 mps 747 mmHg 77%
    21:00 +15°C° 0 mm 2 mps 747 mmHg 79%
    22:00 +15°C° 0 mm 1 mps 747 mmHg 82%
    23:00 +14°C° 0 mm 1 mps 747 mmHg 84%
    Show more